DELTA 1 DEB

Satellite information

Favourite Embed

Satellite Type and Status

DEBRISIN ORBIT

Key statistics

Satellite DELTA 1 DEB at a glance.

Uptime

17351

Days in orbit

Revolutions

≈ 14.4

Per day

Orbit

SSO

Sun Synchronous Orbit

Inclination

98.7

Latest

Satellite identification and parameters

Extended collection of information and parameters for DELTA 1 DEB.

Object identification

Identified? True

Debris? True

Object name: DELTA 1 DEB

International designator: 1978-026FD

Object number (NORAD): 13566

Object ID (CCSDS): 13566

Country: UNITED STATES OF AMERICA (US)

Current information (Y/N): Y

RCS size: SMALL

Orbital parameters

Period: 100.277 minutes

Inclination: 98.702 deg

SMA: 7149.808 km

Apoapsis: 795.811 km

Periapsis: 747.534 km

RAAN: 276.4126 deg

Eccentricy: 0.00337616

Argument of periapsis: 171.6898 deg

Mean anomaly: 218.635 deg

Mean motion: 14.36022478 rev/day

Mean motion (dot): 0.00002085 rev/day2

B* drag term: 0.00072787588 1/REarth

Two-line elements (TLE)

Creation date: Sept. 2, 2025, 10:20 a.m.

Reference frame: TEME

Reference center: EARTH

Epoch: Sept. 2, 2025, 12:56 a.m. UTC

TLE line 0: 0 DELTA 1 DEB

TLE line 1: 1 13566U 78026FD 25245.03917220 .00002085 00000-0 72788-3 0 9996

TLE line 2: 2 13566 98.7020 276.4126 0033762 171.6898 218.6350 14.36022478244246

Live tracking on map

Real-time ground track for satellite DELTA 1 DEB.

In-orbit conjunctions

A list of the most updated potential collisions computed for object DELTA 1 DEB.

Target Orbit TCA Probability of collision Miss distance Type
CZ-6A DEB LEO 2025-02-27 00:13:33 0.0001062076 618.0 (m) DEBRIS
WEOS SSO 2024-08-23 05:04:38 0.0005856803 603.0 (m) PAYLOAD

Associated space launch

Earth observation satellite

DELTA 1 DEB was lifted into orbit during the mission ‘Delta 2910 | Landsat 3’, on board a Delta 2910 space rocket.

The launch took place on March 5, 1978, 5:54 p.m. from Space Launch Complex 2W.

For more information about the launch, click the button.

Launch to space Delta 2910 | Landsat 3
Delta 2910 | Landsat 3

Agency: N/A

Status: Launch Successful

Launch date: March 5, 1978, 5:54 p.m. UTC

Rocket: Delta 2910

Launch pad: Space Launch Complex 2W

Location: Vandenberg SFB, CA, USA

...

Latest news about this satellite

There are no fresh news available about this satellite. Check back as we update our databases every day.


Newsletter sign-up

Weekly statistics, charts and insights to help you stay on top of the space industry.